Flag for Turkey Weather past 2 weeks in Bodrum, Turkey

Now
73 °F

Scattered clouds.


Feels Like: 76 °F
Forecast: 63 / 72 °F
Wind: 5 mph from South

Location: Bodrum


UV Index: 5 (Moderate)

Visibility: 13 mi


Pressure: 30.01 "Hg

Humidity: 63%

Dew point: 60 °F

Location of BodrumLocation

Historic Weather in Bodrum

°F

Bodrum temperature yesterday

Maximum temperature yesterday: 82 °F (at 3:00 PM)
Minimum temperature yesterday: 62 °F (at 6:00 AM)
Average temperature yesterday: 74 °F

Past Weeks' High & Low Weather Summary

 TemperatureHumidityPressure
High82 °F (Apr 22, 3:00 PM)94% (Apr 18, 6:00 AM)30.11 "Hg (Apr 18, 6:00 AM)
Low52 °F (Apr 13, 3:00 AM)22% (Apr 13, 3:00 PM)29.70 "Hg (Apr 18, 3:00 AM)
Average66 °F56%29.97 "Hg
* Reported Apr 8 4:00 PM — Apr 23 4:00 PM, Bodrum, Weather by CustomWeather, © 2014

Note: Actual official high and low records may vary slightly from our data, if they occured in-between our weather recording intervals... More about our weather records

Advertising

Historic Weather Conditions — Data for Previous 24 hours

 ConditionsComfort  
Time TempWeatherWind HumidityBarometerVisibility
4:00 PM
Apr 23
77 °FPartly sunny.2 mph40%30.00 "Hg12 mi
3:00 PM74 °FPartly sunny.2 mph58%30.02 "Hg12 mi
2:00 PM72 °FPartly sunny.5 mph51%30.04 "Hg12 mi
1:00 PM72 °FPartly sunny.2 mph59%30.04 "Hg12 mi
12:00 PM71 °FPartly sunny.3 mph62%30.04 "Hg12 mi
11:00 AM69 °FPartly sunny.1 mph67%30.05 "Hg12 mi
10:00 AM70 °FPartly sunny.1 mph49%30.03 "Hg12 mi
9:00 AM69 °FScattered clouds.No wind58%30.04 "Hg12 mi
6:00 AM62 °FClear.No wind65%30.03 "Hg12 mi
3:00 AM64 °FClear.1 mph58%30.04 "Hg12 mi
12:00 AM66 °FClear.2 mph62%30.07 "Hg12 mi
9:00 PM
Apr 22
69 °FClear.1 mph57%30.04 "Hg12 mi
8:00 PM71 °FPassing clouds.1 mph54%30.03 "Hg12 mi
7:00 PM75 °FSunny.3 mph50%30.01 "Hg12 mi
6:00 PM77 °FSunny.8 mph41%30.01 "Hg12 mi
5:00 PM80 °FSunny.9 mph31%30.01 "Hg12 mi
Weather by CustomWeather, © 2014

See weather overview